Вернуться в каталог

CZ-3A DEB

LostGTO
NORAD 36966·DEBRIS·🇨🇳 China

Запущен Feb 2, 2007 с Xichang Satellite Launch Center

Loading…

TLE

УстаревшееSource: Space-Track

Эпоха: Jul 1, 2024, 09:21 UTC

1 36966U 07003AC  24183.39007069 -.00000107  00000-0  16891-1 0  9997
2 36966  24.3223  99.8939 7348744 231.3656 335.0213  1.89676484105745

Отслеживайте CZ-3A DEB в реальном времени с AllMySat

Download on the App Store